This demonstration page uses our WeatherBlox Daily Observations layout. Learn more.

Left ArrowRight Arrow

38.89511, -77.03637

Hourly Observations for March 16, 2021

Temp ( °F °C ) Dew Point ( °F °C ) Humidity (%) Winds ( mph kmh ) Pressure ( in mb ) Visibility ( mi km ) Precip ( " mm )
12:52 am 00:52 Cloudy 41 5 17 -8.3 38 38 SSE 8 13 30.32 1027 10 16.0934 0 0
1:52 am 01:52 Cloudy 41 5 19 -7.2 41 41 SSE 9 15 30.31 1027 10 16.0934 0 0
2:52 am 02:52 Cloudy 41 5 23 -5 49 49 S 12 19 30.3 1026 10 16.0934 0.001 0.001
3:52 am 03:52 Cloudy 41 5 23 -5 49 49 SSE 9 15 30.27 1025 10 16.0934 0 0
4:52 am 04:52 Cloudy 41 5 23 -5 49 49 SSE 8 13 30.26 1025 10 16.0934 0 0
5:52 am 05:52 Cloudy 41 5 25 -3.9 53 53 SE 8 13 30.24 1024 10 16.0934 0 0
6:52 am 06:52 Cloudy 41 5 25 -3.9 53 53 SSE 7 11 30.24 1024 10 16.0934 0 0
7:52 am 07:52 Cloudy 41 5 26 -3.3 55 55 SSE 8 13 30.24 1024 10 16.0934 0 0
8:52 am 08:52 Cloudy 41 5 30 -1.1 65 65 SSE 12 19 30.24 1024 10 16.0934 0 0
9:52 am 09:52 Cloudy 42 5.6 32 0 68 68 S 13 20 30.25 1024 10 16.0934 0 0
10:52 am 10:52 Cloudy 43 6.1 32 0 65 65 S 12 19 30.21 1023 10 16.0934 0 0
11:38 am 11:38 Cloudy 43 6.1 33 0.6 68 68 S 12 19 30.23 1024 10 16.0934 0 0
11:52 am 11:52 Cloudy 43 6.1 33 0.6 68 68 S 9 15 30.22 1023 10 16.0934 0 0
12:52 pm 12:52 Cloudy 43 6.1 34 1.1 71 71 S 10 17 30.21 1023 10 16.0934 0 0
1:52 pm 13:52 Cloudy 45 7.2 35 1.7 68 68 S 10 17 30.18 1022 10 16.0934 0 0
2:52 pm 14:52 Cloudy 45 7.2 34 1.1 66 66 SSE 12 19 30.15 1021 10 16.0934 0 0
2:59 pm 14:59 Cloudy 44 6.7 34 1.1 68 68 SE 8 13 30.16 1021 10 16.0934 0 0
3:41 pm 15:41 Cloudy 45 7.2 35 1.7 68 68 SSE 9 15 30.14 1021 10 16.0934 0 0
3:52 pm 15:52 Cloudy 45 7.2 35 1.7 68 68 SSE 9 15 30.14 1021 10 16.0934 0 0
4:52 pm 16:52 Cloudy 45 7.2 34 1.1 66 66 SE 12 19 30.13 1020 10 16.0934 0 0
5:52 pm 17:52 Cloudy 45 7.2 35 1.7 68 68 SE 9 15 30.12 1020 10 16.0934 0 0
6:52 pm 18:52 Cloudy 44 6.7 36 2.2 73 73 SSE 10 17 30.12 1020 10 16.0934 0 0
7:52 pm 19:52 Cloudy 43 6.1 36 2.2 76 76 SSE 9 15 30.13 1020 10 16.0934 0 0
8:52 pm 20:52 Cloudy 42 5.6 36 2.2 79 79 SSE 8 13 30.15 1021 10 16.0934 0 0
8:55 pm 20:55 Cloudy 42 5.6 36 2.2 79 79 SSE 8 13 30.15 1021 10 16.0934 0 0
9:44 pm 21:44 Cloudy 41 5 38 3.3 89 89 SSE 3 6 30.16 1021 8 12.87472 0 0
9:52 pm 21:52 Cloudy 41 5 38 3.3 89 89 ESE 5 7 30.14 1021 8 12.87472 0 0
10:45 pm 22:45 Cloudy 41 5 39 3.9 93 93 Calm 30.14 1021 10 16.0934 0 0
10:52 pm 22:52 Cloudy 42 5.6 39 3.9 89 89 SE 3 6 30.14 1021 10 16.0934 0 0
11:02 pm 23:02 Cloudy 42 5.6 38 3.3 85 85 Calm 30.14 1021 10 16.0934 0 0
11:11 pm 23:11 Cloudy 42 5.6 39 3.9 89 89 Calm 30.14 1021 10 16.0934 0 0
11:26 pm 23:26 Cloudy 42 5.6 38 3.3 85 85 Calm 30.15 1021 10 16.0934 0 0
11:52 pm 23:52 Cloudy 42 5.6 38 3.3 85 85 Calm 30.14 1021 8 12.87472 0 0

Powered by AerisWeather